User: anonymous   Login
Location: Dos Palmas
(32.4468°N, 116.8732°W)
Time: 02:15:56
(UTC+00:00)
Language:

SPOT 3 Rocket - Orbit

View from above orbital plane
View from above orbital plane
View from above satellite
View from above satellite

Ground track
Ground track

The orbit data is extracted from the following two-line orbital elements,

1 22830U 93061H   21259.38827222 -.00000006  00000-0  14422-4 0  9991
2 22830  98.7051 317.2139 0011908  67.9438 292.3008 14.31490430460057
Epoch (UTC): 16 September 2021 09:19:06
Eccentricity: 0.0011908
inclination: 98.7051°
perigee height: 778 km
apogee height: 795 km
right ascension of ascending node: 317.2139°
argument of perigee: 67.9438°
revolutions per day: 14.31490430
mean anomaly at epoch: 292.3008°
orbit number at epoch: 46005

The dashed part of the orbit path shows where the satellite is in the earth's shadow,  

DLR